NR0A-4 Weather Reports


Display with metric or nautical units.
time (UTC)temp
F
wind
direction
speed
MPH
gust
MPH
rain 1hr
in
rain 24hr
in
rain mn
in
humidity
%
barometer
mb
20180621180240 62 344 5.0 13.0 0.00 0.46 0.39 97 1011.2
20180621175740 61 137 2.0 2.0 0.00 0.46 0.39 98 1011.2
20180621175240 61 7 2.0 8.0 0.00 0.46 0.39 98 1011.5
20180621174740 60 343 5.0 12.0 0.00 0.46 0.39 98 1011.5
20180621174240 61 299 5.0 13.0 0.00 0.46 0.39 98 1011.4
20180621173740 61 325 6.0 7.0 0.00 0.46 0.39 98 1011.3
20180621173240 61 327 2.0 3.0 0.00 0.46 0.39 98 1011.1
20180621172740 61 324 3.0 12.0 0.00 0.46 0.39 99 1011.1
20180621172240 61 295 5.0 8.0 0.00 0.47 0.39 99 1011.0
20180621171740 60 299 0.0 0.0 0.00 0.47 0.39 99 1011.0
20180621171240 60 299 0.0 0.0 0.00 0.47 0.39 99 1011.1
20180621170740 60 299 0.0 0.0 0.00 0.47 0.39 99 1011.1
20180621170240 60 299 0.0 0.0 0.00 0.47 0.39 99 1011.0
20180621165740 60 299 0.0 0.0 0.00 0.47 0.39 99 1010.9
20180621165239 60 299 0.0 0.0 0.00 0.48 0.39 99 1010.9
20180621164739 60 299 0.0 0.0 0.00 0.48 0.39 99 1010.9
20180621164239 60 299 0.0 0.0 0.00 0.48 0.39 99 1010.9
20180621163739 60 299 0.0 0.0 0.00 0.48 0.39 99 1010.8
20180621163239 60 299 0.0 0.0 0.00 0.48 0.39 99 1010.8
20180621162740 60 299 0.0 0.0 0.00 0.49 0.39 99 1010.8
20180621162238 60 299 0.0 0.0 0.00 0.49 0.39 99 1010.8
20180621161738 60 299 0.0 0.0 0.00 0.49 0.39 99 1010.7
20180621161238 60 299 0.0 0.0 0.00 0.49 0.39 99 1010.6
20180621160738 60 299 0.0 0.0 0.00 0.50 0.39 99 1010.5
20180621160238 60 299 0.0 0.0 0.00 0.50 0.39 99 1010.5
20180621155738 60 299 0.0 0.0 0.00 0.51 0.39 99 1010.4
20180621155243 60 299 0.0 0.0 0.00 0.52 0.39 99 1010.4
20180621154743 60 299 0.0 0.0 0.00 0.53 0.39 99 1010.3
20180621154243 59 299 0.0 0.0 0.00 0.54 0.39 99 1010.2
20180621153743 59 299 0.0 0.0 0.00 0.54 0.39 99 1010.2
20180621153243 59 299 0.0 0.0 0.00 0.55 0.39 99 1010.1
20180621152743 60 299 0.0 0.0 0.00 0.55 0.39 99 1010.1
20180621152243 60 299 0.0 0.0 0.01 0.55 0.39 99 1010.1
20180621151743 59 281 5.0 9.0 0.01 0.56 0.39 99 1010.1
20180621151243 59 316 5.0 8.0 0.01 0.56 0.39 99 1010.1
20180621150743 59 331 6.0 8.0 0.02 0.56 0.39 99 1010.0
20180621150243 59 295 3.0 6.0 0.02 0.56 0.39 99 1010.0
20180621145743 59 323 5.0 6.0 0.02 0.56 0.39 99 1009.9
20180621145243 59 305 3.0 8.0 0.02 0.56 0.39 99 1009.9
20180621144743 59 321 3.0 8.0 0.02 0.56 0.39 99 1009.9
20180621144243 59 343 5.0 7.0 0.02 0.57 0.39 99 1009.9
20180621143743 59 308 5.0 13.0 0.02 0.58 0.39 99 1009.8
20180621143243 59 335 5.0 7.0 0.02 0.58 0.39 99 1009.8
20180621142743 59 324 5.0 9.0 0.02 0.59 0.39 99 1009.8
20180621142243 58 307 3.0 6.0 0.01 0.59 0.38 99 1009.7
20180621141742 58 317 5.0 9.0 0.01 0.60 0.38 99 1009.7
20180621141241 58 324 5.0 8.0 0.02 0.61 0.38 99 1009.7
20180621140741 58 314 5.0 8.0 0.01 0.63 0.37 99 1009.5
20180621140241 58 328 6.0 14.0 0.01 0.67 0.37 99 1009.5
20180621135741 58 309 5.0 13.0 0.01 0.70 0.37 99 1009.5
20180621135241 58 298 5.0 8.0 0.01 0.74 0.37 99 1009.3
20180621134741 58 325 5.0 7.0 0.01 0.77 0.37 99 1009.4
20180621134241 58 302 5.0 8.0 0.01 0.83 0.37 99 1009.3
20180621133741 58 309 6.0 9.0 0.01 0.89 0.37 99 1009.3
20180621133241 58 306 6.0 8.0 0.01 0.98 0.37 99 1009.3
20180621132741 58 309 5.0 14.0 0.01 1.05 0.37 99 1009.3
20180621132243 58 314 5.0 9.0 0.01 1.12 0.37 99 1009.2
20180621131743 58 313 6.0 8.0 0.01 1.17 0.37 99 1009.1
20180621131243 58 351 6.0 8.0 0.00 1.19 0.36 99 1009.0
20180621130743 58 310 5.0 7.0 0.00 1.23 0.36 99 1009.0
20180621130243 58 308 5.0 10.0 0.00 1.25 0.36 99 1008.9
20180621125743 58 303 5.0 12.0 0.00 1.30 0.36 99 1008.9
20180621125243 58 326 5.0 8.0 0.00 1.37 0.36 99 1008.8
20180621124743 58 313 5.0 9.0 0.00 1.41 0.36 99 1008.8
20180621124243 58 301 6.0 15.0 0.00 1.45 0.36 99 1008.8
20180621123743 58 312 5.0 8.0 0.00 1.49 0.36 99 1008.7
20180621123242 58 303 3.0 5.0 0.00 1.59 0.36 99 1008.7
20180621122742 58 312 5.0 9.0 0.00 1.65 0.36 99 1008.7
20180621122242 58 316 3.0 8.0 0.00 1.66 0.36 99 1008.6
20180621121742 58 330 5.0 8.0 0.00 1.67 0.36 99 1008.5
20180621121242 58 293 5.0 7.0 0.00 1.67 0.36 99 1008.5
20180621120742 58 313 5.0 18.0 0.00 1.68 0.36 99 1008.5
20180621120242 57 299 6.0 15.0 0.00 1.68 0.36 99 1008.4
20180621115742 57 302 5.0 13.0 0.01 1.68 0.36 99 1008.4
20180621115242 57 322 7.0 16.0 0.01 1.68 0.36 99 1008.3
20180621114742 57 305 6.0 10.0 0.01 1.68 0.36 99 1008.3
20180621114242 57 322 6.0 8.0 0.01 1.68 0.36 99 1008.2
20180621113741 57 327 5.0 7.0 0.01 1.68 0.36 99 1008.1
20180621113242 57 315 5.0 8.0 0.01 1.69 0.36 99 1008.1
20180621112741 57 322 5.0 12.0 0.01 1.69 0.36 99 1008.0
20180621112241 57 325 5.0 7.0 0.01 1.69 0.36 99 1007.7
20180621111741 57 303 5.0 8.0 0.01 1.70 0.36 99 1007.7
20180621111240 57 316 6.0 9.0 0.02 1.71 0.36 99 1007.7
20180621110740 57 288 5.0 8.0 0.03 1.71 0.36 99 1007.7
20180621110240 57 310 7.0 16.0 0.04 1.72 0.36 99 1007.5
20180621105740 57 310 5.0 8.0 0.05 1.71 0.35 99 1007.5
20180621105240 57 304 3.0 8.0 0.07 1.72 0.35 99 1007.6
20180621104740 57 297 5.0 7.0 0.08 1.73 0.35 99 1007.5
20180621104240 57 307 5.0 12.0 0.09 1.74 0.35 99 1007.6
20180621103740 57 324 3.0 15.0 0.10 1.74 0.35 99 1007.6
20180621103240 57 293 5.0 6.0 0.11 1.74 0.35 99 1007.6
20180621102740 57 312 6.0 9.0 0.12 1.74 0.35 99 1007.5
20180621102240 57 349 5.0 9.0 0.13 1.74 0.35 99 1007.6
20180621101740 56 326 5.0 9.0 0.14 1.74 0.35 99 1007.7
20180621101240 56 276 5.0 8.0 0.13 1.73 0.34 99 1008.0
20180621100740 56 291 3.0 7.0 0.13 1.72 0.33 99 1008.0
20180621100240 56 281 5.0 9.0 0.12 1.71 0.32 99 1008.1
20180621095740 56 316 5.0 9.0 0.10 1.69 0.30 99 1008.1
20180621095240 56 306 5.0 9.0 0.09 1.67 0.28 99 1008.2
20180621094740 56 320 5.0 10.0 0.08 1.67 0.27 99 1008.2
20180621094240 56 308 3.0 8.0 0.07 1.66 0.26 99 1008.3
20180621093740 56 301 3.0 8.0 0.06 1.65 0.25 99 1008.4
20180621093240 56 309 3.0 7.0 0.06 1.64 0.24 99 1008.4
20180621092740 56 324 3.0 7.0 0.05 1.63 0.23 99 1008.3
20180621092240 56 313 5.0 7.0 0.05 1.62 0.22 99 1008.3
20180621091240 56 299 5.0 10.0 0.06 1.61 0.21 99 1008.5
20180621090741 57 306 5.0 8.0 0.06 1.60 0.20 99 1008.6
20180621090240 57 307 3.0 5.0 0.07 1.60 0.20 99 1008.6
20180621085740 57 304 5.0 8.0 0.08 1.60 0.20 99 1008.7
20180621085240 57 316 3.0 5.0 0.08 1.59 0.19 99 1008.8
20180621084740 57 292 2.0 6.0 0.08 1.59 0.19 99 1008.8
20180621084240 57 315 3.0 5.0 0.08 1.59 0.19 99 1008.8
20180621083739 57 311 5.0 6.0 0.09 1.60 0.19 99 1008.9
20180621083238 57 308 3.0 7.0 0.08 1.59 0.18 99 1009.0
20180621082739 57 318 3.0 6.0 0.08 1.59 0.18 99 1009.0
20180621082243 57 293 2.0 5.0 0.07 1.59 0.17 99 1009.1
20180621081743 57 304 5.0 6.0 0.07 1.59 0.17 99 1009.1
20180621081243 57 298 5.0 7.0 0.05 1.58 0.15 99 1009.1
20180621080742 57 323 3.0 6.0 0.04 1.57 0.14 99 1009.2
20180621080242 57 334 3.0 7.0 0.03 1.57 0.13 99 1009.2
20180621075742 57 271 3.0 3.0 0.02 1.56 0.12 99 1009.2
20180621075242 57 282 3.0 6.0 0.01 1.55 0.11 99 1009.4
20180621074742 57 307 2.0 8.0 0.01 1.56 0.11 99 1009.4
20180621074242 57 288 2.0 8.0 0.01 1.56 0.11 99 1009.4
20180621073742 57 324 2.0 7.0 0.00 1.55 0.10 99 1009.5
20180621073242 57 319 5.0 6.0 0.00 1.55 0.10 99 1009.5
20180621072742 57 297 3.0 6.0 0.01 1.56 0.10 99 1009.7
20180621072242 57 300 3.0 7.0 0.01 1.56 0.10 99 1009.8
20180621071742 57 311 3.0 6.0 0.01 1.56 0.10 99 1009.8
20180621071242 57 321 3.0 7.0 0.01 1.56 0.10 99 1010.0
20180621070742 57 286 2.0 5.0 0.02 1.57 0.10 99 1010.0
20180621070242 57 298 3.0 5.0 0.02 1.57 0.10 99 1010.0
20180621065742 57 284 2.0 3.0 0.03 1.57 0.10 99 1010.1
20180621065242 57 321 3.0 8.0 0.03 1.57 0.10 99 1010.1
20180621064742 57 323 3.0 8.0 0.03 1.58 0.10 99 1010.2
20180621064242 57 298 2.0 7.0 0.04 1.58 0.10 99 1010.3
20180621063742 57 315 2.0 6.0 0.04 1.59 0.10 99 1010.3
20180621063242 57 324 3.0 7.0 0.05 1.59 0.10 99 1010.4
20180621062741 57 314 2.0 5.0 0.05 1.59 0.09 99 1010.5
20180621062241 57 316 3.0 6.0 0.06 1.59 0.09 99 1010.5
20180621061741 57 292 3.0 8.0 0.06 1.60 0.09 99 1010.6
20180621061240 57 316 3.0 5.0 0.07 1.60 0.09 99 1010.7
20180621060739 57 327 3.0 7.0 0.07 1.59 0.08 99 1010.7
20180621060243 57 330 3.0 6.0 0.07 1.59 0.08 99 1010.8
20180621055743 56 308 3.0 6.0 0.00 1.58 0.07 99 1010.7
20180621055243 56 325 3.0 5.0 0.00 1.58 0.07 99 1010.8
20180621054743 56 313 3.0 7.0 0.00 1.58 0.07 99 1010.9
20180621054243 56 292 2.0 7.0 0.00 1.58 0.06 99 1010.9
20180621053743 56 305 3.0 6.0 0.00 1.58 0.06 99 1010.9
20180621053244 56 306 2.0 6.0 0.00 1.57 0.05 99 1010.9
20180621052743 56 301 3.0 6.0 0.00 1.56 0.04 99 1011.0
20180621052243 56 303 2.0 7.0 0.00 1.55 0.03 99 1010.9
20180621051743 55 300 3.0 5.0 0.00 1.55 0.03 99 1011.0
20180621051244 55 275 3.0 6.0 0.00 1.54 0.02 99 1011.1
20180621050743 55 314 2.0 6.0 0.00 1.53 0.01 99 1011.2
20180621050242 55 335 3.0 7.0 0.00 1.53 0.01 98 1011.1
20180621045741 55 332 3.0 6.0 0.04 1.52 1.52 98 1011.2
20180621045241 55 288 2.0 7.0 0.03 1.51 1.51 98 1011.4
20180621044741 55 315 2.0 5.0 0.03 1.52 1.51 98 1011.3
20180621044240 55 295 2.0 5.0 0.03 1.53 1.51 97 1011.3
20180621043740 56 306 1.0 5.0 0.02 1.52 1.50 97 1011.5
20180621043240 56 302 3.0 8.0 0.02 1.52 1.50 97 1011.5
20180621042739 56 295 2.0 12.0 0.02 1.52 1.50 97 1011.6
20180621042239 56 333 3.0 9.0 0.03 1.52 1.50 96 1011.6
20180621041739 56 290 3.0 5.0 0.02 1.51 1.49 96 1011.6
20180621041243 57 352 2.0 7.0 0.02 1.51 1.49 96 1011.6
20180621040743 57 322 3.0 6.0 0.01 1.50 1.48 96 1011.6
20180621040242 57 316 2.0 10.0 0.01 1.50 1.48 96 1011.6
20180621035742 57 324 3.0 9.0 0.01 1.50 1.48 96 1011.7
20180621035242 57 334 3.0 7.0 0.01 1.50 1.48 96 1011.8
20180621034740 57 323 3.0 6.0 0.01 1.50 1.48 96 1011.7
20180621034240 57 328 3.0 3.0 0.01 1.50 1.48 95 1011.8
20180621033739 57 309 5.0 9.0 0.01 1.50 1.48 95 1011.7
20180621033239 57 320 3.0 5.0 0.01 1.50 1.48 95 1011.8
20180621032739 58 287 3.0 8.0 0.01 1.50 1.48 95 1011.8
20180621032239 58 305 3.0 7.0 0.00 1.49 1.47 94 1011.8
20180621031739 58 324 5.0 7.0 0.00 1.49 1.47 94 1011.7
20180621031243 58 311 5.0 7.0 0.00 1.49 1.47 94 1011.7
20180621030743 58 307 5.0 7.0 0.00 1.49 1.47 95 1011.7
20180621030243 58 297 5.0 6.0 0.00 1.49 1.47 96 1011.7
20180621025742 58 312 3.0 6.0 0.00 1.49 1.47 95 1011.7
20180621025242 58 312 3.0 6.0 0.00 1.49 1.47 95 1011.7
20180621024742 58 290 3.0 6.0 0.00 1.49 1.47 95 1011.6
20180621024241 58 322 3.0 8.0 0.00 1.49 1.47 95 1011.7
20180621023741 58 323 5.0 8.0 0.00 1.49 1.47 95 1011.6
20180621023241 58 320 3.0 8.0 0.00 1.49 1.47 95 1011.7
20180621022741 58 325 5.0 10.0 0.00 1.49 1.47 95 1011.6
20180621022240 58 291 6.0 8.0 0.00 1.49 1.47 95 1011.6
20180621021740 58 322 3.0 5.0 0.00 1.49 1.47 95 1011.6
20180621021244 58 295 2.0 6.0 0.00 1.49 1.47 96 1011.5
20180621020743 58 307 5.0 7.0 0.00 1.49 1.47 96 1011.5
20180621020243 58 318 3.0 12.0 0.00 1.49 1.47 96 1011.5
20180621015742 58 312 3.0 5.0 0.01 1.49 1.47 96 1011.5
20180621015242 58 312 3.0 7.0 0.01 1.49 1.47 96 1011.5
20180621014741 58 309 3.0 7.0 0.01 1.49 1.47 97 1011.3
20180621014241 58 295 3.0 6.0 0.01 1.49 1.47 97 1011.5
20180621013741 58 290 3.0 14.0 0.01 1.49 1.47 98 1011.0
20180621013241 58 315 3.0 9.0 0.01 1.49 1.47 98 1011.4
20180621012741 59 285 3.0 8.0 0.02 1.49 1.47 98 1011.3
20180621012241 59 307 3.0 6.0 0.02 1.49 1.47 98 1011.6
20180621011740 59 290 2.0 5.0 0.02 1.49 1.47 99 1011.6
20180621011240 59 344 3.0 7.0 0.02 1.49 1.47 99 1011.6
20180621010740 59 312 3.0 6.0 0.02 1.49 1.47 99 1011.6
20180621010240 59 337 3.0 7.0 0.02 1.49 1.47 98 1011.6
20180621005740 59 310 2.0 6.0 0.01 1.48 1.46 98 1011.6
20180621005239 59 304 2.0 5.0 0.01 1.48 1.46 98 1011.7
20180621004739 59 308 2.0 9.0 0.01 1.48 1.46 98 1011.8
20180621004239 59 301 5.0 7.0 0.01 1.48 1.46 98 1011.7
20180621003743 59 308 2.0 3.0 0.01 1.48 1.46 98 1011.7
20180621003242 59 326 2.0 6.0 0.01 1.48 1.46 98 1011.7
20180621002741 59 294 5.0 13.0 0.00 1.47 1.45 97 1011.7
20180621002240 59 343 2.0 8.0 0.00 1.47 1.45 97 1011.7
20180621001744 59 317 3.0 5.0 0.00 1.47 1.45 97 1011.7
20180621001243 60 288 2.0 5.0 0.00 1.47 1.45 96 1011.7
20180621000742 60 287 3.0 5.0 0.00 1.47 1.45 96 1011.7
20180621000242 60 305 3.0 6.0 0.00 1.47 1.45 96 1011.6
20180620235740 61 290 2.0 6.0 0.00 1.47 1.45 95 1011.6
20180620235240 61 290 3.0 6.0 0.00 1.47 1.45 95 1011.5
20180620234740 61 298 2.0 3.0 0.00 1.47 1.45 95 1011.3
20180620234240 61 290 2.0 3.0 0.00 1.47 1.45 94 1011.4
20180620233740 61 357 3.0 6.0 0.00 1.47 1.45 94 1011.4
20180620233240 61 317 2.0 7.0 0.00 1.47 1.45 93 1011.3
20180620232740 61 336 3.0 7.0 0.00 1.47 1.45 92 1011.3
20180620232239 61 329 2.0 3.0 0.00 1.47 1.45 92 1011.3
20180620231739 61 345 2.0 5.0 0.00 1.47 1.45 91 1011.4
20180620231242 61 298 2.0 5.0 0.00 1.47 1.45 91 1011.5
20180620230742 61 287 3.0 9.0 0.00 1.47 1.45 91 1011.4
20180620230241 61 311 2.0 5.0 0.00 1.47 1.45 91 1011.3
20180620225741 61 317 3.0 5.0 0.00 1.47 1.45 91 1011.3
20180620225240 61 325 5.0 7.0 0.00 1.47 1.45 91 1011.5
20180620224740 61 327 3.0 5.0 0.00 1.47 1.45 91 1011.3
20180620224243 61 323 3.0 6.0 0.00 1.47 1.45 92 1011.2
20180620223743 61 279 2.0 3.0 0.00 1.47 1.45 92 1011.2
20180620223242 61 329 3.0 8.0 0.00 1.47 1.45 93 1011.3
20180620222742 61 328 5.0 7.0 0.00 1.47 1.45 94 1011.2
20180620222241 62 320 5.0 9.0 0.00 1.47 1.45 94 1011.1
20180620221741 62 307 2.0 2.0 0.00 1.47 1.45 93 1011.4
20180620221241 62 313 2.0 2.0 0.00 1.47 1.45 92 1011.1
20180620220740 62 358 2.0 5.0 0.00 1.47 1.45 92 1011.3
20180620220240 62 309 1.0 2.0 0.00 1.47 1.45 91 1011.3
20180620215739 62 296 2.0 5.0 0.00 1.47 1.45 91 1011.3
20180620215238 62 348 1.0 3.0 0.00 1.47 1.45 91 1011.4
20180620214738 62 309 2.0 3.0 0.00 1.47 1.45 91 1011.6
20180620214238 62 323 2.0 6.0 0.00 1.47 1.45 91 1011.6
20180620213738 62 328 2.0 3.0 0.00 1.47 1.45 91 1011.7
20180620213238 62 285 2.0 5.0 0.00 1.47 1.45 91 1011.6
20180620212741 62 319 3.0 6.0 0.00 1.47 1.45 91 1011.6
20180620212240 62 284 3.0 6.0 0.00 1.47 1.45 91 1011.7
20180620211740 62 321 2.0 9.0 0.00 1.47 1.45 92 1011.7
20180620211239 62 310 2.0 2.0 0.00 1.47 1.45 92 1011.7
20180620210739 62 262 0.0 5.0 0.00 1.47 1.45 92 1011.6
20180620210239 62 318 1.0 3.0 0.00 1.47 1.45 92 1011.7
20180620205739 62 289 2.0 6.0 0.00 1.47 1.45 93 1011.8
20180620205239 62 302 1.0 3.0 0.00 1.47 1.45 93 1011.9
20180620204739 62 309 2.0 5.0 0.00 1.47 1.45 93 1011.8
20180620204238 62 298 2.0 9.0 0.00 1.47 1.45 93 1011.8
20180620203738 62 307 1.0 3.0 0.00 1.47 1.45 94 1011.7
20180620203238 62 248 2.0 3.0 0.00 1.47 1.45 94 1011.7
20180620202738 62 292 2.0 5.0 0.00 1.47 1.45 94 1011.7
20180620202238 62 268 1.0 3.0 0.00 1.47 1.45 95 1011.7
20180620201738 62 292 1.0 5.0 0.00 1.47 1.45 94 1011.7
20180620201238 61 281 2.0 6.0 0.00 1.47 1.45 94 1011.8
20180620200738 61 264 2.0 5.0 0.00 1.47 1.45 95 1011.7
20180620200238 62 247 1.0 5.0 0.00 1.47 1.45 94 1011.8
20180620195742 62 307 2.0 3.0 0.00 1.47 1.45 95 1011.7
20180620195242 61 304 3.0 9.0 0.00 1.47 1.45 96 1011.6
20180620194742 61 347 2.0 7.0 0.00 1.47 1.45 96 1011.6
20180620194241 61 336 3.0 9.0 0.00 1.47 1.45 96 1011.7
20180620193742 61 294 1.0 3.0 0.00 1.47 1.45 96 1011.7
20180620193241 61 282 2.0 7.0 0.00 1.47 1.45 97 1011.7
20180620192740 61 328 1.0 2.0 0.00 1.47 1.45 97 1011.8
20180620192239 62 307 2.0 3.0 0.00 1.47 1.45 97 1011.8
20180620191739 62 302 2.0 3.0 0.00 1.47 1.45 97 1011.7
20180620191239 62 297 2.0 3.0 0.00 1.47 1.45 97 1011.6
20180620190740 62 359 1.0 5.0 0.00 1.47 1.45 98 1011.6
20180620190239 62 246 1.0 1.0 0.00 1.47 1.45 98 1011.2
20180620185739 62 326 1.0 3.0 0.00 1.47 1.45 98 1011.0
20180620185239 62 345 1.0 1.0 0.00 1.47 1.45 99 1010.9
20180620184738 62 307 1.0 6.0 0.00 1.47 1.45 99 1010.7
20180620184238 62 291 1.0 7.0 0.00 1.47 1.45 99 1010.6
20180620183738 62 307 2.0 6.0 0.00 1.47 1.45 99 1010.6
20180620183238 62 314 3.0 6.0 0.00 1.47 1.45 99 1010.7
20180620182738 62 339 3.0 13.0 0.00 1.47 1.45 99 1010.9
20180620182238 62 298 3.0 8.0 0.01 1.47 1.45 99 1011.0
20180620181738 62 315 3.0 7.0 0.01 1.47 1.45 99 1011.2
20180620181238 62 349 3.0 10.0 0.01 1.47 1.45 99 1011.3
20180620180738 62 310 2.0 6.0 0.01 1.47 1.45 99 1011.6